C/2023 U1 ( Fuls )

Japanese version
Home page
Updated on May 15, 2024

---------------------------------------------------------------------

* Profile

Discovery Date October 16, 2023
Magnitude 19.3 mag
Discoverer David Carson Fuls (Mt. Lemmon Survey)

* Pictures

* Orbital Elements

Epoch 2024 Mar. 31.0 TT = JDT 2460400.5
T 2024 Oct. 12.57646 TT                                 Rudenko
q   4.9730236            (2000.0)            P               Q
z  +0.0004432      Peri.  255.60378     +0.09917051     +0.62951683
 +/-0.0000032      Node   305.80959     +0.71305120     -0.58513720
e   0.9977961      Incl.  108.14630     -0.69406282     -0.51119764
>From 108 observations 2023 Jan. 24-2024 Mar. 14, mean residual 0".6.

* Magnitudes Graph

        m1 = 8.0 + 5 log d + 10.0 log r

---------------------------------------------------------------------

The orbital elements are published on M.P.E.C. 2024-G193.
The magnitudes graphs are made with Comet for Windows.

---------------------------------------------------------------------

Copyright(C) Seiichi Yoshida (comet@aerith.net). All rights reserved.